Regional Weather Roundup
Issued by NWS Upton, NY

Current Version | Previous Version | Graphics & Text | Print | Product List | Glossary Off
Versions: 1 2 3 4 5 6 7 8 9 10 11 12 13 14 15 16 17 18 19 20 21 22 23 24 25 26 27 28 29 30 31 32 33 34 35 36 37 38 39 40 41 42 43 44 45 46 47 48 49 50

000
ASUS41 KOKX 191707
RWROKX

REGIONAL WEATHER ROUNDUP
NATIONAL WEATHER SERVICE NEW YORK NY
100 PM EDT SUN APR 19 2015

NOTE: "FAIR" INDICATES FEW OR NO CLOUDS BELOW 12,000 FEET WITH NO
SIGNIFICANT WEATHER AND/OR OBSTRUCTIONS TO VISIBILITY.

NYZ071-072-176-178-NJZ106-104-191800-
NEW YORK CITY METRO AREA


CITY           SKY/WX    TMP DP  RH WIND       PRES   REMARKS
CENTRAL PARK   MOSUNNY   63  31  30 VRB6      30.27F
LAGUARDIA APRT PTSUNNY   58  30  34 NE9       30.25S
KENNEDY INTL   PTSUNNY   56  33  42 SE21      30.27S
NEWARK/LIBERTY PTSUNNY   58  39  49 S12G18    30.25S
BRNX BOT. GARD   N/A     59  30  33 SE13      30.26F
TETERBORO      MOSUNNY   61  27  27 E8        30.23F
$$

NYZ177-179-078>081-191800-
LONG ISLAND NEW YORK

CITY           SKY/WX    TMP DP  RH WIND       PRES   REMARKS
FARMINGDALE    MOSUNNY   54  35  48 SE17      30.26F
ISLIP          PTSUNNY   54  33  45 SE17      30.25S
SHIRLEY        PTSUNNY   53  32  44 SE12      30.27F
WESTHAMPTON    PTSUNNY   52  33  48 SE12G20   30.29S
MONTAUK POINT    N/A     55  30  38 E8        30.28F
$$

NYZ052-065-067-191800-
HUDSON VALLEY

CITY           SKY/WX    TMP DP  RH WIND       PRES   REMARKS
WHITE PLAINS   MOSUNNY   55  29  36 SE10      30.24F
NEWBURGH       MOSUNNY   57  34  41 E10       30.24F
MONTGOMERY     MOSUNNY   58  30  34 CALM      30.22F
POUGHKEEPSIE   MOSUNNY   60  32  34 N8        30.22F
ALBANY         PTSUNNY   55  30  38 VRB3      30.27F
$$

NJZ001-105-106-008-010-013-015-019>022-104-191800-
NEW JERSEY

CITY           SKY/WX    TMP DP  RH WIND       PRES   REMARKS
NEWARK/LIBERTY PTSUNNY   58  39  49 S12G18    30.25S
TETERBORO      MOSUNNY   61  27  27 E8        30.23F
CALDWELL       MOSUNNY   60  28  29 S9        30.24F
MORRISTOWN     PTSUNNY   63  30  29 E12       30.23F
SOMERVILLE     SUNNY     62  33  33 S9        30.21F
SUSSEX         MOSUNNY   60  29  30 VRB3      30.22F
ANDOVER          N/A     61  25  25 VRB7      30.21F
TRENTON        SUNNY     62  36  37 SE9G20    30.21F
MILLVILLE      MOSUNNY   61  37  41 E14G24    30.21F
ATLANTIC CITY  MOSUNNY   55  36  48 E20G29    30.24S
WRIGHTSTOWN    SUNNY     59  35  40 SE12G20   30.20F
TOMS RIVER     MOSUNNY   54  34  47 E16G28    30.27F
BELMAR         MOSUNNY   54  34  47 E17       30.26F
$$

PAZ047>061-062-071-191800-
EASTERN PENNSYLVANIA

CITY           SKY/WX    TMP DP  RH WIND       PRES   REMARKS
PHILADELPHIA   PTSUNNY   65  38  36 E14       30.21F
ALLENTOWN      SUNNY     65  32  29 E10       30.20F
SCRANTON       MOSUNNY   65  20  17 S9        30.16F
$$

CTZ002-004>006-009-010-012-RIZ004-006-007-MAZ004-011-015-191800-
SOUTHERN NEW ENGLAND
 IN CT

CITY           SKY/WX    TMP DP  RH WIND       PRES   REMARKS
BRADLEY INTL   PTSUNNY   59  26  28 E5        30.24F
HARTFORD       SUNNY     57  31  37 S7        30.25F
DANBURY        MOSUNNY   59  25  27 NW3       30.23F
WTRBRY/OXFORD  SUNNY     55  28  35 SE5       30.24F
BRIDGEPORT     MOSUNNY   54  33  45 SE14      30.25F
MERIDEN        SUNNY     58  28  32 NW5       30.24F
NEW HAVEN      PTSUNNY   54  33  45 S14       30.26F
CHESTER        FAIR      54  32  43 S12       30.25F
GROTON         MOSUNNY   51  36  56 SE14      30.26F
WILLIMANTIC    SUNNY     58  29  33 VRB5      30.23F

 IN RI

CITY           SKY/WX    TMP DP  RH WIND       PRES   REMARKS
PROVIDENCE     MOSUNNY   56  32  40 MISG      30.26S
BLOCK ISLAND   MOSUNNY   50  34  53 E12       30.28S
WESTERLY       SUNNY     51  34  52 SE15      30.27S

 IN MA

CITY           SKY/WX    TMP DP  RH WIND       PRES   REMARKS
BOSTON         MOSUNNY   49  36  61 SE13      30.29S
WORCESTER      SUNNY     54  26  34 S8        30.23F
WESTFIELD      SUNNY     59  27  29 VRB5      30.24F
PROVINCETOWN   SUNNY    N/A N/A N/A NE12      30.30R
NANTUCKET      SUNNY     50  36  58 NE14      30.27R
$$

ANZ330-335-338-340-345-350-353-355-191800-
COASTAL MARINE OBSERVATIONS


STATION/POSITION TIME  SKY/WX   TEMP    WIND        PRES    VSBY  WAVE
                                AIR SEA DIR/SP/G                  HT/PER
                 (UTC)          (F)     (DEG/KT/KT) (MB)    (MI)  (FT/S)
NY HARB ENTRANCE 1650            47 46  100/ 14/ 17 1024.6          2/ 8
4S FIRE IS       1603               45                N/A           2/ 8
20S FIRE ISLAND  1550               45              1025.6          2/ 7
23SW MTP         1550                                 N/A           2/ 7
HUDSON CANYON    NOT AVBL
EXECUTION ROCKS  NOT AVBL
WESTERN LI SOUND NOT AVBL
CENTRAL LI SOUND NOT AVBL
EASTERN LI SOUND 1600            45     170/  6/  8   N/A
ROBBINS REEF     1600            47     190/ 17/ 18 1023.7
$$


>>>>>>>>>>>>>>>>>>>>>>>>>>>> KEY <<<<<<<<<<<<<<<<<<<<<<<<<<<
>                                                          <
>     SKY/WX - SKY CONDITION/PRESENT WEATHER               <
>     TMP    - TEMPERATURE IN FAHRENHEIT                   <
>     DP     - DEWPOINT IN FAHRENHEIT                      <
>     RH     - RELATIVE HUMIDITY IN PERCENT                <
>     WIND   - DIRECTION AND SPEED IN MPH                  <
>     PRES   - MEAN SEA LEVEL PRESSURE IN INCHES OF HG     <
>     WCI    - WIND CHILL INDEX                            <
>     VSB    - VISIBILITY IN MILES                         <
>     HX     - HEAT INDEX                                  <
>     TC     - TEMPERATURE IN CELSIUS                      <
>     VRB    - VARIABLE WIND DIRECTION                     <
>                                                          <
>>>>>>>>>>>>>>>>>>>>>>>>>>>> KEY <<<<<<<<<<<<<<<<<<<<<<<<<<<





USA.gov is the U.S. government's official web portal to all federal, state and local government web resources and services.